CZ-4C DEB, 45484

Orbit data source: Space-Track

CZ-4C DEB, 45484 is space debris in LEO originally from a launch on Tue, 10 Apr 2018 UTC launched from the Jiuquan Satellite Launch Center, China (JSC). Debris objects in space refer to the collection of defunct objects orbiting the Earth. Examples of debris include non-operational satellites, rocket bodies, and fragments generated from explosions, collisions, or faulty payload assembly.

Loading next visibility...
Identifier
45484, 2018-034M
Orbit
LEO
Country
Flag of CNCN / PRC
Related business
Manufacturer
Unknown
Mission
Spacecraft
Bus & Motor
Unknown
Mass
Unknown
Launch date (UTC)
2018-04-10 (8 years ago)
Launch vehicle
Unknown
Launch site
Jiuquan Satellite Launch Center, China (JSC)
Object type
Payload
Rocket body
Debris
Shape & HBR
Unknown shape, 0.1 m
Radar Cross Section
Small (<0.1 m²)

Expand to show TLE details & history
Last TLE update: 2 days ago

TLE from 2 days ago
0 CZ-4C DEB
1 45484U 18034M   25306.79292796 -.00000027  00000-0  92426-4 0  9995
2 45484  63.3913 342.0543 0245563   7.8741 352.6029 13.42926042337008
Epoch: 2025-11-02T19:01Z
TLE epoch observation values (Epoch: 2025-11-02T19:01:48.975Z)
Latitude
-0.00008°
Longitude
14.29664°
Altitude
918.155 km
Speed
7.483 km/s
True Right ascension
22h 48m 13s
True Declination
0° 00' 00"
Sunlit
Object was in full shadow at epoch
Visualization orbit readout
Latitude
Unknown
Longitude
Unknown
Altitude
Unknown
Speed
Unknown
Apparent Right ascension
Unknown
Apparent Declination
Unknown
Sunlit
N/A
Visualization observer readout
Local Sidereal Time
15:46:06
Azimuth
Unknown
Elevation
Unknown
Doppler factor
Unknown
Orbital elements
Apogee altitude
1,280.798 km
Perigee altitude
913.663 km
Semi-major axis
7,475.367 km
Eccentricity
0.02456
Inclination
63.3913°
RAAN
342.0543°
Arg. of periapsis
7.8741°
True anomaly
352.22926°
Mean anomaly
352.6029°
Eccentric anomaly
352.41724°
Mean motion
3.35811 °/min
Orbital period
107.2 mins
BSTAR
0.000092426
Loading maneuver chart data...
Computing Atmospheric mass density...
Loading historical data...
Loading historical data...
Loading historical data...
Loading historical data...
Loading historical data...
Loading historical data...
Loading historical data...

Documentation

Showing up to 5 results
|